TimeAST,TemperatureF,Dew PointF,Humidity,Sea Level PressureIn,VisibilityMPH,Wind Direction,Wind SpeedMPH,Gust SpeedMPH,PrecipitationIn,Events,Conditions,WindDirDegrees,DateUTC
12:00 AM,24.8,16.3,70,29.88,-9999.0,NNE,6.9,-,N/A,,Unknown,20,2013-02-25 04:00:00
1:00 AM,23.9,16.5,73,29.88,-9999.0,North,6.9,-,N/A,,Unknown,10,2013-02-25 05:00:00
2:00 AM,22,16,69,29.91,,North,6.9,,,,,0,2013-02-25 06:00:00
2:00 AM,21.7,16.0,78,29.91,-9999.0,North,6.9,-,N/A,,Unknown,360,2013-02-25 06:00:00
3:00 AM,20.7,15.3,80,29.91,-9999.0,North,8.1,-,N/A,,Unknown,360,2013-02-25 07:00:00
4:00 AM,19.6,14.9,82,29.92,-9999.0,North,4.6,-,N/A,,Unknown,350,2013-02-25 08:00:00
5:00 AM,19,15,76,29.94,,North,3.5,,,,,0,2013-02-25 09:00:00
5:00 AM,19.2,14.7,83,29.94,-9999.0,North,3.5,-,N/A,,Unknown,360,2013-02-25 09:00:00
6:00 AM,18.9,14.7,84,29.96,-9999.0,NNW,3.5,-,N/A,,Unknown,330,2013-02-25 10:00:00
7:00 AM,17.8,14.2,86,30.00,-9999.0,NW,2.3,-,N/A,,Unknown,310,2013-02-25 11:00:00
8:00 AM,18,15,81,30.04,,NNW,4.6,,,,,330,2013-02-25 12:00:00
8:00 AM,18.3,14.7,86,30.04,-9999.0,NNW,4.6,-,N/A,,Unknown,330,2013-02-25 12:00:00
9:00 AM,21.7,15.4,77,30.05,-9999.0,NNE,3.5,-,N/A,,Unknown,20,2013-02-25 13:00:00
10:00 AM,24.1,15.1,69,30.05,-9999.0,NNE,10.4,-,N/A,,Unknown,30,2013-02-25 14:00:00
11:00 AM,27,15,47,30.06,,North,6.9,,,,,10,2013-02-25 15:00:00
11:00 AM,27.1,14.9,60,30.06,-9999.0,North,6.9,-,N/A,,Unknown,10,2013-02-25 15:00:00
12:00 PM,29.7,14.7,54,30.06,-9999.0,NNW,5.8,-,N/A,,Unknown,340,2013-02-25 16:00:00
1:00 PM,31.3,12.9,47,30.06,-9999.0,North,5.8,-,N/A,,Unknown,360,2013-02-25 17:00:00
2:00 PM,36,10,20,30.07,,North,6.9,,,,,350,2013-02-25 18:00:00
2:00 PM,35.6,9.9,34,30.07,-9999.0,North,6.9,-,N/A,,Unknown,350,2013-02-25 18:00:00
3:00 PM,38.1,8.2,29,30.08,-9999.0,NNE,4.6,-,N/A,,Unknown,20,2013-02-25 19:00:00
4:00 PM,38.7,8.2,28,30.09,-9999.0,NNE,4.6,-,N/A,,Unknown,20,2013-02-25 20:00:00
5:00 PM,39,9,16,30.11,,North,3.5,,,,,350,2013-02-25 21:00:00
5:00 PM,39.0,9.1,29,30.11,-9999.0,North,3.5,-,N/A,,Unknown,350,2013-02-25 21:00:00
6:00 PM,34.5,10.0,36,30.14,-9999.0,North,2.3,-,N/A,,Unknown,10,2013-02-25 22:00:00
7:00 PM,26.8,14.5,60,30.18,-9999.0,Calm,Calm,-,N/A,,Unknown,0,2013-02-25 23:00:00
8:00 PM,25,15,55,30.19,,WSW,2.3,,,,,250,2013-02-26 00:00:00
8:00 PM,25.0,15.3,67,30.19,-9999.0,WSW,2.3,-,N/A,,Unknown,250,2013-02-26 00:00:00
9:00 PM,21.7,14.7,74,30.19,-9999.0,West,1.2,-,N/A,,Unknown,260,2013-02-26 01:00:00
10:00 PM,19.0,14.5,83,30.20,-9999.0,ENE,1.2,-,N/A,,Unknown,70,2013-02-26 02:00:00
11:00 PM,18,14,79,30.21,,Calm,Calm,,,,,,2013-02-26 03:00:00
11:00 PM,17.8,14.4,86,30.21,-9999.0,Calm,Calm,-,N/A,,Unknown,0,2013-02-26 03:00:00